Location: Emblem
(44.5058°N, 108.3917°W)
Time: 19:07:40
(UTC+00:00)

X-37B - Visible Passes

Search period start: 24 January 2022 00:00
Search period end: 03 February 2022 00:00
Orbit: 334 x 337 km, 45.0° (Epoch: 11 January)

Date Brightness Start Highest point End Pass type
(mag) Time Alt. Az. Time Alt. Az. Time Alt. Az.
26 Jan 3.0 02:07:00 10° SSW 02:07:37 13° S 02:07:37 13° S visible
27 Jan 3.1 02:26:39 10° SW 02:27:26 16° SW 02:27:26 16° SW visible
28 Jan 2.3 01:12:27 10° SSW 01:14:30 18° SSE 01:15:56 13° ESE visible
28 Jan 3.7 02:46:51 10° WSW 02:47:10 12° WSW 02:47:10 12° WSW visible
29 Jan 1.1 01:32:05 10° SW 01:34:45 37° SSE 01:35:38 28° ESE visible
30 Jan 0.2 01:52:17 10° WSW 01:55:06 71° SSE 01:55:16 68° SE visible
31 Jan 1.3 02:12:43 10° W 02:14:53 48° W 02:14:53 48° W visible
01 Feb 0.4 00:57:42 10° WSW 01:00:32 71° SSE 01:03:15 11° E visible
01 Feb 2.8 02:33:12 10° W 02:34:29 24° W 02:34:29 24° W visible
02 Feb 0.2 01:18:08 10° W 01:20:59 81° N 01:22:51 19° E visible
02 Feb 3.8 02:53:39 10° W 02:54:05 13° W 02:54:05 13° W visible
